Location: Newark
(43.0000°N, 1.6781°W)
Time: 19:34:47
(UTC+00:00)

Transit 2A Rocket - Pass Details

Date: 26 April 2021
Orbit: 594 x 908 km, 66.7° (Epoch: 05 May)

Event Time Altitude Azimuth Distance (km) Brightness Sun altitude
Rises 23:41:46 0° 314° (NW) 2,933 8.7 -32.9°
Reaches altitude 10° 23:44:25 10° 299° (WNW) 2,062 7.6 -33.0°
Enters shadow 23:45:00 13° 293° (WNW) 1,900 7.3 -33.0°
